Regional Weather Roundup
Issued by NWS

Home | Current Version | Previous Version | Graphics & Text | Print | Product List | Glossary On
Versions: 1 2 3 4 5 6 7 8 9 10 11 12 13 14 15 16 17 18 19 20 21 22 23 24 25 26 27 28 29 30 31 32 33 34 35 36 37 38 39 40 41 42 43 44 45 46 47 48 49 50
000
ASUS43 KLOT 010808
RWRIL

ILLINOIS REGIONAL WEATHER ROUNDUP
NATIONAL WEATHER SERVICE CHICAGO/ROMEOVILLE IL
300 AM CDT SUN MAY 01 2016

NOTE: "FAIR" INDICATES FEW OR NO CLOUDS BELOW 12,000 FEET WITH NO
SIGNIFICANT WEATHER AND/OR OBSTRUCTIONS TO VISIBILITY.

* THESE STATIONS ARE NOT UNDER NWS QUALITY CONTROL. THEY ALSO MAY NOT
  REPORT WEATHER SUCH AS PRECIPITATION OR FOG.

ILZ001-002-007-009-015-016-024-010900-
NORTHWEST ILLINOIS

CITY           SKY/WX    TMP DP  RH WIND       PRES   REMARKS
MOLINE         CLOUDY    47  44  90 NE7       29.91S FOG
STERLING*      CLOUDY    46  45  93 NE8       29.92F
SAVANNA*       CLOUDY    45  44  96 N6        29.94S FOG
$$

ILZ003-004-008-010-011-017-018-010900-
NORTH CENTRAL ILLINOIS

CITY           SKY/WX    TMP DP  RH WIND       PRES   REMARKS
ROCKFORD       DRIZZLE   46  44  93 NE10      29.96R
FREEPORT*      CLOUDY    44  44  98 NE9       29.96S FOG
ROCHELLE*      CLOUDY    46  45  97 NE12      29.92S FOG
DE KALB*       CLOUDY    46  45  98 NE12      29.93R FOG
$$

ILZ005-006-012>014-019>023-010900-
NORTHEAST ILLINOIS

CITY           SKY/WX    TMP DP  RH WIND       PRES   REMARKS
CHICAGO-OHARE  DRIZZLE   45  44  97 NE10      29.91S FOG
CHICAGO-MIDWAY DRIZZLE   47  45  93 N7        29.91R FOG
AURORA         CLOUDY    47  45  93 NE12      29.91S FOG
LANSING*       CLOUDY    47  47 100 N7        29.90R FOG
JOLIET*        CLOUDY    48  47  98 NE8       29.90S FOG
WAUKEGAN       CLOUDY    43  43 100 N14G20    29.94R
DUPAGE AIRPORT CLOUDY    46  43  89 NE13      29.90F FOG
KANKAKEE*      CLOUDY    48  47  97 NE7       29.88S FOG
WHEELING       CLOUDY    44  43  96 NE12      29.94R FOG
MORRIS*        CLOUDY    47  46  96 CALM      29.89S FOG
ROMEOVILLE*    CLOUDY    46  46  97 NE9       29.90S FOG
NORTHERLY ISL    N/A     45  43  93 N7          N/A
NORTHERLY ISL    N/A     45  43  93 N7          N/A
$$

LMZ740>746-010900-
SOUTHERN LAKE MICHIGAN

STATION/POSITION SKY/WX   TEMP    WIND        PRES    VSBY  WAVE
                          AIR SEA DIR/SP/G                  HT/PER
                          (F)     (DEG/KT/KT) (MB)    (MI)  (FT/S)
SOUTHERN BUOY              42 40   40/ 14/ 16 1013.5R         2/ 4
HARRISON CRIB              45      40/ 16/ 17   N/A
BURNHAM HARBOR             44     340/  6/ 11   N/A
CALUMET HARBOR             45      20/  8/ 12 1011.9R
BURNS HARBOR               48      40/  4/ 14 1012.9R
MICHIGAN CITY              48      40/  7/  8   N/A
ST. JOSEPH                 49 49                N/A           2/ 4
$$

ILZ025>027-034>036-040-047-049-050-058-095>099-010900-
WEST-CENTRAL ILLINOIS

CITY           SKY/WX    TMP DP  RH WIND       PRES   REMARKS
QUINCY         FOG       52  52 100 N9        29.86F VSB 3/4
GALESBURG*     FOG       46  46  99 NE10      29.90R VSB 1
MACOMB*        FOG       48  48 100 NE9       29.90S VSB 1
JACKSONVILLE*  FOG       55  54  97 NE6       29.85S VSB 1/2
PITTSFIELD*    FOG       58  58 100 N3        29.86S VSB 1/4
$$

ILZ028>032-037-038-041>044-048-051>054-059>061-010900-
CENTRAL ILLINOIS

CITY           SKY/WX    TMP DP  RH WIND       PRES   REMARKS
PONTIAC        FOG       49  49 100 NE10      29.88F VSB 1
BLOOMINGTON    FOG       50  50 100 NE12      29.87F VSB 1/4
DECATUR        CLOUDY    60  53  77 W8        29.85S
PEORIA         CLOUDY    49  48  97 NE5       29.88R FOG
LACON*         CLOUDY    47  46  97 NE3       29.88S FOG
LINCOLN*       FOG       52  52 100 N5        29.87R VSB 3/4
SPRINGFIELD    FOG       55  54  96 N7        29.85S VSB 1/2
TAYLORVILLE    CLOUDY    57  55  94 W6        29.85R
$$

ILZ033-039-045-046-055>057-062-063-010900-
EAST-CENTRAL ILLINOIS

CITY           SKY/WX    TMP DP  RH WIND       PRES   REMARKS
CHAMPAIGN      MOCLDY    57  56  96 CALM      29.86R FOG
RANTOUL*       FOG       54  54  99 NE7       29.85S VSB 1/4
MATTOON        PTCLDY    61  50  67 SW6       29.83F
PARIS*         MOCLDY    61  59  94 SW9       29.86R
$$

ILZ079-100>102-010900-
SOUTHWEST ILLINOIS

CITY           SKY/WX    TMP DP  RH WIND       PRES   REMARKS
ALTON          CLEAR     57  56  95 SE3       29.85S
BELLEVILLE     MOCLDY    56  56 100 S5        29.84F
CAHOKIA*       CLOUDY    59  56  89 S6        29.85F
SPARTA*        CLOUDY    58  57  96 E3        29.88F
$$

ILZ064>066-069>071-074>076-080>082-084>086-088>090-092>094-010900-
SOUTH-CENTRAL ILLINOIS

CITY           SKY/WX    TMP DP  RH WIND       PRES   REMARKS
CARBONDALE     LGT RAIN  59  56  89 E6        29.88F
CAIRO*         PTCLDY    63  62  99 N5        29.88R
EFFINGHAM*     MOCLDY    57  57 100 CALM      29.86F
MARION         LGT RAIN  61  59  94 N3        29.90S
MT. VERNON     CLOUDY    57  54  88 CALM      29.87F
CENTRALIA*     CLOUDY    60  58  94 S8        29.85S
SALEM*         CLOUDY    60  56  88 CALM      29.85F
METROPOLIS*    CLOUDY    64  64 100 N5        29.90R
$$

ILZ067-068-072-073-078-083-087-091-010900-
SOUTHEAST ILLINOIS

CITY           SKY/WX    TMP DP  RH WIND       PRES   REMARKS
LAWRENCEVILLE  CLOUDY    59  57  93 NW10        N/A
FLORA*         LGT RAIN  60  57  91 S7        29.85S
FAIRFIELD*     LGT RAIN  58  58  98 CALM      29.85F
HARRISBURG*    MOCLDY    60  57  89 CALM      29.90S
ROBINSON*      LGT RAIN  57  55  93 SW8       29.89S
CARMI*         PTCLDY    58  57  94 CALM      29.88F
$$

ABBREVIATIONS USED IN REMARKS
   TC - TEMPERATURE IN CELSIUS
  WCI - WIND CHILL INDEX
   HX - HEAT INDEX
  VSB - VISIBILITY
$$





USA.gov is the U.S. government's official web portal to all federal, state and local government web resources and services.